Location: Coopersdale
(40.3556°N, 78.9372°W)
Time: 19:40:44
(UTC+00:00)

Transit 4A - Pass Details

Date: 22 January 2021
Orbit: 866 x 978 km, 66.8° (Epoch: 26 February)

Event Time Altitude Azimuth Distance (km) Brightness Sun altitude
Rises 00:05:11 0° 191° (S) 3,648 11.3 -19.6°
Reaches altitude 10° 00:07:48 10° 186° (S) 2,712 10.5 -20.1°
Maximum altitude 00:13:54 50° 112° (ESE) 1,221 8.1 -21.3°
Enters shadow 00:15:41 40° 68° (ENE) 1,413 8.3 -21.6°
Drops below altitude 10° 00:20:02 10° 39° (NE) 2,726 - -22.4°
Sets 00:22:40 0° 35° (NE) 3,669 - -22.9°
